sat.trackr.live / text

‹ back to catalog

SITRO-AIS 13

NORAD 61743 · 2024-199J

PAYLOAD ACTIVE UNKNOWN

§ Identity

Operator
Country
CIS
Launch date
2024-11-04
Launch site
VOSTO
Launch vehicle
Mass (kg)
RCS (m²)

External: N2YO · Heavens-Above · Gunter

§ Orbital elements

Epoch: 2026-09-22T20:22:20.209728Z

Period
96.11 min
Inclination
97.3190°
Eccentricity
0.0007607
Mean motion
14.98289284 rev/d
Perigee alt
566.9 km
Apogee alt
577.5 km
Semi-major
6,950.3 km
B*
9.1596e-5
RAAN
99.3380°
Arg perigee
91.5504°
Mean anomaly
268.6591°
Rev number
14,661

§ Raw data

SITRO-AIS 131 61743U 24199J   26265.84884502  .00001036  00000+0  91596-4 0  99992 61743  97.3190  99.3380 0007607  91.5504 268.6591 14.98289284146618

JSON: /api/v1/satellites/61743 · /tle

For live sub-satellite position, see the globe view (requires WebGL).

§ Visibility from observer

Set your observer location to see the next 7 days of passes ≥ 10°. The values pass through the URL so the page stays shareable.

No JS? Fill the form by hand. The geolocation button needs JavaScript.

§ Radio — SatNOGS DB

ModeDescriptionDownlinkUplink
GMSK USP Mode U - GMSK2k4 - USP 401.015 MHz

1 transmitter · refreshed weekly from db.satnogs.org